START_TIME,STEP,MOV.,A46,t_acc.,A13,t_acc.,M47,t_acc.,A17,t_acc.,A28,t_acc.,M38,t_acc.
1979-07-30 00:41:36.570 ,0,0,,0,0.,4.8,0.,4.8,,0,0.,4.8,0.,4.8
1979-07-30 00:41:41.370 ,0,0,,0,0.,4.8,0.,4.8,,0,0.,4.8,0.,4.8
1979-07-30 00:41:46.170 ,0,0,,0,1.,4.8,0.,4.8,,0,0.,4.8,0.,4.8
1979-07-30 00:41:50.970 ,0,0,,0,16.,4.8,0.,4.8,,0,0.,4.8,0.,4.8
1979-07-30 00:41:55.770 ,0,0,,0,11.,4.8,0.,4.8,,0,0.,4.8,0.,4.8
1979-07-30 00:42:00.570 ,0,0,,0,10.,4.8,0.,4.8,,0,0.,4.8,0.,4.8
1979-07-30 00:42:05.370 ,0,0,,0,7.,4.8,0.,4.8,,0,0.,4.8,0.,4.8
1979-07-30 00:42:10.170 ,0,0,,0,,0,,0,,0,,0,,0
1979-07-30 00:42:14.970 ,0,0,,0,1.,4.8,0.,4.8,,0,0.,4.8,0.,4.8
1979-07-30 00:42:19.770 ,0,0,,0,0.,4.8,0.,4.8,,0,0.,4.8,0.,4.8
1979-07-30 00:43:12.570 ,0,0,,0,0.,4.8,0.,4.8,,0,0.,4.8,1.,4.8
1979-07-30 00:43:17.370 ,0,0,,0,,0,,0,,0,,0,,0
1979-07-30 00:43:22.170 ,0,0,,0,0.,4.8,0.,4.8,,0,0.,4.8,3.,4.8
1979-07-30 00:43:26.970 ,0,0,,0,10.,4.8,0.,4.8,,0,0.,4.8,1.,4.8
1979-07-30 00:43:31.770 ,0,0,,0,9.,4.8,1.,4.8,,0,0.,4.8,1.,4.8
1979-07-30 00:43:36.570 ,0,0,,0,2.,4.8,0.,4.8,,0,0.,4.8,2.,4.8
1979-07-30 00:43:41.370 ,0,0,,0,3.,4.8,0.,4.8,,0,0.,4.8,1.,4.8
1979-07-30 00:43:46.170 ,0,0,,0,5.,4.8,0.,4.8,,0,0.,4.8,2.,4.8
1979-07-30 00:43:50.970 ,0,0,,0,0.,4.8,0.,4.8,,0,0.,4.8,0.,4.8
1979-07-30 00:43:55.770 ,0,0,,0,0.,4.8,0.,4.8,,0,0.,4.8,1.,4.8
1979-07-30 00:44:00.570 ,4,0,,0,0.,4.8,1.,4.8,,0,0.,4.8,2.,4.8
1979-07-30 00:44:05.370 ,4,0,,0,0.,4.8,0.,4.8,,0,0.,4.8,1.,4.8
1979-07-30 00:44:10.170 ,4,0,,0,0.,4.8,0.,4.8,,0,0.,4.8,2.,4.8
1979-07-30 00:44:14.970 ,4,0,,0,5.,4.8,0.,4.8,,0,0.,4.8,2.,4.8
1979-07-30 00:44:19.770 ,4,0,,0,5.,4.8,0.,4.8,,0,0.,4.8,1.,4.8
1979-07-30 00:44:24.570 ,0,0,,0,6.,4.8,1.,4.8,,0,0.,4.8,0.,4.8
1979-07-30 00:44:29.370 ,0,0,,0,7.,4.8,0.,4.8,,0,0.,4.8,1.,4.8
1979-07-30 00:44:34.170 ,0,0,,0,5.,4.8,0.,4.8,,0,0.,4.8,0.,4.8
1979-07-30 00:44:38.970 ,0,0,,0,0.,4.8,0.,4.8,,0,0.,4.8,2.,4.8
1979-07-30 00:44:43.770 ,0,0,,0,0.,4.8,0.,4.8,,0,0.,4.8,0.,4.8
1979-07-30 00:44:49.170 ,3,0,,0,,0,,0,,0,,0,,0
1979-07-30 00:44:53.970 ,3,0,,0,,0,,0,,0,,0,,0
1979-07-30 00:44:58.770 ,3,0,,0,1.,4.8,0.,4.8,,0,0.,4.8,1.,4.8
1979-07-30 00:45:03.570 ,3,0,,0,4.,4.8,0.,4.8,,0,0.,4.8,2.,4.8
1979-07-30 00:45:08.370 ,3,0,,0,3.,4.8,0.,4.8,,0,0.,4.8,1.,4.8
1979-07-30 00:45:12.570 ,3,0,,0,2.,4.8,0.,4.8,,0,0.,4.8,0.,4.8
1979-07-30 00:45:17.370 ,3,0,,0,1.,4.8,0.,4.8,,0,0.,4.8,1.,4.8
1979-07-30 00:45:22.170 ,3,0,,0,3.,4.8,0.,4.8,,0,0.,4.8,0.,4.8
1979-07-30 00:45:26.970 ,3,0,,0,0.,4.8,0.,4.8,,0,0.,4.8,0.,4.8
1979-07-30 00:45:31.770 ,3,0,,0,0.,4.8,0.,4.8,,0,0.,4.8,0.,4.8
1979-07-30 00:45:36.570 ,2,0,,0,0.,4.8,0.,4.8,,0,0.,4.8,3.,4.8
1979-07-30 00:45:41.370 ,2,0,,0,0.,4.8,0.,4.8,,0,0.,4.8,3.,4.8
1979-07-30 00:45:46.170 ,2,0,,0,3.,4.8,0.,4.8,,0,0.,4.8,2.,4.8
1979-07-30 00:45:50.970 ,2,0,,0,1.,4.8,0.,4.8,,0,0.,4.8,1.,4.8
1979-07-30 00:45:55.770 ,2,0,,0,4.,4.8,2.,4.8,,0,0.,4.8,1.,4.8
1979-07-30 00:46:00.570 ,2,0,,0,5.,4.8,0.,4.8,,0,0.,4.8,2.,4.8
1979-07-30 00:46:05.370 ,2,0,,0,3.,4.8,0.,4.8,,0,0.,4.8,1.,4.8
1979-07-30 00:46:10.170 ,2,0,,0,3.,4.8,0.,4.8,,0,0.,4.8,0.,4.8
1979-07-30 00:46:14.970 ,2,0,,0,0.,4.8,0.,4.8,,0,0.,4.8,1.,4.8
1979-07-30 00:46:19.770 ,2,0,,0,0.,4.8,0.,4.8,,0,0.,4.8,1.,4.8
1979-07-30 00:46:24.570 ,1,0,,0,0.,4.8,0.,4.8,,0,0.,4.8,0.,4.8
1979-07-30 00:46:29.370 ,1,0,,0,0.,4.8,0.,4.8,,0,0.,4.8,3.,4.8
1979-07-30 00:46:34.170 ,1,0,,0,0.,4.8,0.,4.8,,0,0.,4.8,1.,4.8
1979-07-30 00:46:38.970 ,1,0,,0,4.,4.8,0.,4.8,,0,0.,4.8,2.,4.8
1979-07-30 00:46:43.770 ,1,0,,0,6.,4.8,1.,4.8,,0,0.,4.8,1.,4.8
1979-07-30 00:46:48.570 ,1,0,,0,4.,4.8,0.,4.8,,0,0.,4.8,0.,4.8
1979-07-30 00:46:53.370 ,1,0,,0,3.,4.8,0.,4.8,,0,0.,4.8,1.,4.8
1979-07-30 00:46:58.170 ,1,0,,0,2.,4.8,0.,4.8,,0,0.,4.8,0.,4.8
1979-07-30 00:47:02.970 ,1,0,,0,0.,4.8,0.,4.8,,0,0.,4.8,1.,4.8
1979-07-30 00:47:07.770 ,1,0,,0,0.,4.8,0.,4.8,,0,0.,4.8,0.,4.8
1979-07-30 00:47:12.570 ,0,0,,0,0.,4.8,0.,4.8,,0,0.,4.8,2.,4.8
1979-07-30 00:47:17.370 ,0,0,,0,0.,4.8,0.,4.8,,0,0.,4.8,1.,4.8
1979-07-30 00:47:22.170 ,0,0,,0,0.,4.8,0.,4.8,,0,0.,4.8,1.,4.8
1979-07-30 00:47:26.970 ,0,0,,0,5.,4.8,0.,4.8,,0,0.,4.8,0.,4.8
1979-07-30 00:47:31.770 ,0,0,,0,3.,4.8,0.,4.8,,0,0.,4.8,1.,4.8
1979-07-30 00:47:36.570 ,0,0,,0,2.,4.8,1.,4.8,,0,0.,4.8,2.,4.8
1979-07-30 00:47:41.370 ,0,0,,0,4.,4.8,0.,4.8,,0,0.,4.8,0.,4.8
1979-07-30 00:47:46.170 ,0,0,,0,0.,4.8,0.,4.8,,0,0.,4.8,5.,4.8
1979-07-30 00:47:50.970 ,0,0,,0,0.,4.8,0.,4.8,,0,0.,4.8,0.,4.8
1979-07-30 00:47:55.770 ,0,0,,0,0.,4.8,0.,4.8,,0,0.,4.8,0.,4.8
1979-07-30 00:48:00.570 ,0,0,,0,0.,4.8,0.,4.8,,0,0.,4.8,0.,4.8
1979-07-30 00:48:05.370 ,0,0,,0,0.,4.8,0.,4.8,,0,0.,4.8,0.,4.8
1979-07-30 00:48:10.170 ,0,0,,0,1.,4.8,0.,4.8,,0,0.,4.8,1.,4.8
1979-07-30 00:48:14.970 ,0,0,,0,5.,4.8,0.,4.8,,0,0.,4.8,2.,4.8
1979-07-30 00:48:19.770 ,0,0,,0,1.,4.8,0.,4.8,,0,0.,4.8,2.,4.8
1979-07-30 00:48:24.570 ,0,0,,0,4.,4.8,0.,4.8,,0,0.,4.8,1.,4.8
1979-07-30 00:48:29.370 ,0,0,,0,7.,4.8,1.,4.8,,0,0.,4.8,2.,4.8
1979-07-30 00:48:34.170 ,0,0,,0,3.,4.8,1.,4.8,,0,0.,4.8,0.,4.8
1979-07-30 00:48:38.970 ,0,0,,0,0.,4.8,0.,4.8,,0,0.,4.8,1.,4.8
1979-07-30 00:48:43.770 ,0,0,,0,0.,4.8,0.,4.8,,0,0.,4.8,1.,4.8
1979-07-30 00:48:48.570 ,1,0,,0,0.,4.8,0.,4.8,,0,0.,4.8,0.,4.8
1979-07-30 00:48:53.370 ,1,0,,0,0.,4.8,0.,4.8,,0,0.,4.8,2.,4.8
1979-07-30 00:48:58.170 ,1,0,,0,0.,4.8,0.,4.8,,0,0.,4.8,0.,4.8
1979-07-30 00:49:02.970 ,1,0,,0,4.,4.8,0.,4.8,,0,0.,4.8,1.,4.8
1979-07-30 00:49:07.770 ,1,0,,0,1.,4.8,0.,4.8,,0,0.,4.8,2.,4.8
1979-07-30 00:49:12.570 ,0,0,,0,1.,4.8,0.,4.8,,0,0.,4.8,1.,4.8
1979-07-30 00:49:17.370 ,0,0,,0,3.,4.8,0.,4.8,,0,0.,4.8,1.,4.8
1979-07-30 00:49:22.170 ,0,0,,0,1.,4.8,1.,4.8,,0,0.,4.8,0.,4.8
1979-07-30 00:49:26.970 ,0,0,,0,,0,,0,,0,,0,,0
1979-07-30 00:49:31.770 ,0,0,,0,,0,,0,,0,,0,,0
1979-07-30 00:52:29.370 ,0,0,,0,,0,,0,,0,,0,,0
1979-07-30 00:52:34.170 ,0,0,,0,,0,,0,,0,,0,,0
1979-07-30 00:52:38.970 ,0,0,,0,3.,4.8,0.,4.8,,0,0.,4.8,0.,4.8
1979-07-30 00:52:43.770 ,0,0,,0,0.,4.8,0.,4.8,,0,0.,4.8,2.,4.8
1979-07-30 00:52:48.570 ,0,0,,0,0.,4.8,0.,4.8,,0,0.,4.8,1.,4.8
1979-07-30 00:52:48.570 ,0,0,,0,0.,4.8,0.,4.8,,0,0.,4.8,0.,4.8
1979-07-30 00:52:53.370 ,0,0,,0,0.,4.8,0.,4.8,,0,0.,4.8,1.,4.8
1979-07-30 00:52:58.170 ,0,0,,0,3.,4.8,0.,4.8,,0,0.,4.8,1.,4.8
1979-07-30 00:53:02.970 ,0,0,,0,9.,4.8,0.,4.8,,0,0.,4.8,1.,4.8
1979-07-30 00:53:07.770 ,0,0,,0,7.,4.8,0.,4.8,,0,0.,4.8,2.,4.8
1979-07-30 00:53:12.570 ,0,0,,0,6.,4.8,0.,4.8,,0,0.,4.8,0.,4.8
1979-07-30 00:53:17.370 ,0,0,,0,7.,4.8,1.,4.8,,0,0.,4.8,3.,4.8
1979-07-30 00:53:22.170 ,0,0,,0,6.,4.8,0.,4.8,,0,0.,4.8,2.,4.8
1979-07-30 00:53:26.970 ,0,0,,0,,0,,0,,0,,0,,0
1979-07-30 00:53:31.770 ,0,0,,0,,0,,0,,0,,0,,0
1979-07-30 00:57:30.570 ,0,0,,0,,0,,0,,0,,0,,0
1979-07-30 00:57:35.370 ,0,0,,0,,0,,0,,0,,0,,0
1979-07-30 00:57:40.170 ,0,0,,0,,0,,0,,0,,0,,0
1979-07-30 00:57:44.970 ,0,0,,0,,0,,0,,0,,0,,0
1979-07-30 00:57:49.770 ,0,0,,0,0.,4.8,1.,4.8,,0,0.,4.8,1.,4.8
1979-07-30 00:57:36.570 ,3,0,,0,0.,4.8,0.,4.8,,0,0.,4.8,0.,4.8
1979-07-30 00:57:41.370 ,3,0,,0,0.,4.8,0.,4.8,,0,0.,4.8,4.,4.8
1979-07-30 00:57:46.170 ,3,0,,0,0.,4.8,0.,4.8,,0,0.,4.8,0.,4.8
1979-07-30 00:57:50.970 ,3,0,,0,2.,4.8,0.,4.8,,0,0.,4.8,0.,4.8
1979-07-30 00:57:55.770 ,3,0,,0,3.,4.8,1.,4.8,,0,0.,4.8,0.,4.8
1979-07-30 00:58:00.570 ,3,0,,0,6.,4.8,0.,4.8,,0,0.,4.8,0.,4.8
1979-07-30 00:58:05.370 ,3,0,,0,6.,4.8,0.,4.8,,0,0.,4.8,2.,4.8
1979-07-30 00:58:10.170 ,3,0,,0,4.,4.8,0.,4.8,,0,0.,4.8,2.,4.8
1979-07-30 00:58:14.970 ,3,0,,0,0.,4.8,0.,4.8,,0,0.,4.8,0.,4.8
1979-07-30 00:58:19.770 ,3,0,,0,0.,4.8,0.,4.8,,0,0.,4.8,0.,4.8
1979-07-30 00:58:24.570 ,2,0,,0,0.,4.8,0.,4.8,,0,0.,4.8,0.,4.8
1979-07-30 00:58:29.370 ,2,0,,0,0.,4.8,0.,4.8,,0,0.,4.8,0.,4.8
1979-07-30 00:58:34.170 ,2,0,,0,0.,4.8,0.,4.8,,0,0.,4.8,0.,4.8
1979-07-30 00:58:38.970 ,2,0,,0,5.,4.8,0.,4.8,,0,0.,4.8,2.,4.8
1979-07-30 00:58:43.770 ,2,0,,0,4.,4.8,1.,4.8,,0,0.,4.8,2.,4.8
1979-07-30 00:58:48.570 ,2,0,,0,3.,4.8,0.,4.8,,0,0.,4.8,1.,4.8
1979-07-30 00:58:53.370 ,2,0,,0,8.,4.8,2.,4.8,,0,0.,4.8,1.,4.8
1979-07-30 00:58:58.170 ,2,0,,0,1.,4.8,0.,4.8,,0,0.,4.8,0.,4.8
1979-07-30 00:59:02.970 ,2,0,,0,0.,4.8,0.,4.8,,0,0.,4.8,1.,4.8
1979-07-30 00:59:07.770 ,2,0,,0,0.,4.8,0.,4.8,,0,0.,4.8,1.,4.8
1979-07-30 00:59:12.570 ,1,0,,0,0.,4.8,0.,4.8,,0,0.,4.8,1.,4.8
1979-07-30 00:59:17.370 ,1,0,,0,0.,4.8,0.,4.8,,0,0.,4.8,0.,4.8
1979-07-30 00:59:22.170 ,1,0,,0,0.,4.8,0.,4.8,,0,0.,4.8,2.,4.8
1979-07-30 00:59:26.970 ,1,0,,0,3.,4.8,0.,4.8,,0,0.,4.8,0.,4.8
1979-07-30 00:59:31.770 ,1,0,,0,3.,4.8,0.,4.8,,0,0.,4.8,2.,4.8
1979-07-30 00:59:36.570 ,1,0,,0,3.,4.8,0.,4.8,,0,0.,4.8,0.,4.8
1979-07-30 00:59:41.370 ,1,0,,0,6.,4.8,1.,4.8,,0,0.,4.8,1.,4.8
1979-07-30 00:59:46.170 ,1,0,,0,3.,4.8,0.,4.8,,0,0.,4.8,1.,4.8
1979-07-30 00:59:50.970 ,1,0,,0,0.,4.8,0.,4.8,,0,0.,4.8,0.,4.8
1979-07-30 00:59:55.770 ,1,0,,0,0.,4.8,0.,4.8,,0,0.,4.8,2.,4.8
1979-07-30 01:00:00.570 ,0,0,,0,0.,4.8,0.,4.8,,0,0.,4.8,1.,4.8
1979-07-30 01:00:05.370 ,0,0,,0,0.,4.8,0.,4.8,,0,0.,4.8,1.,4.8
1979-07-30 01:00:10.170 ,0,0,,0,2.,4.8,0.,4.8,,0,0.,4.8,1.,4.8
1979-07-30 01:00:14.970 ,0,0,,0,2.,4.8,1.,4.8,,0,0.,4.8,1.,4.8
1979-07-30 01:00:19.770 ,0,0,,0,10.,4.8,1.,4.8,,0,0.,4.8,1.,4.8
1979-07-30 01:00:24.570 ,0,0,,0,7.,4.8,1.,4.8,,0,0.,4.8,0.,4.8
1979-07-30 01:00:29.370 ,0,0,,0,7.,4.8,0.,4.8,,0,0.,4.8,3.,4.8
1979-07-30 01:00:34.170 ,0,0,,0,4.,4.8,0.,4.8,,0,0.,4.8,1.,4.8
1979-07-30 01:00:38.970 ,0,0,,0,0.,4.8,0.,4.8,,0,0.,4.8,2.,4.8
1979-07-30 01:00:43.770 ,0,0,,0,0.,4.8,0.,4.8,,0,0.,4.8,1.,4.8
1979-07-30 01:00:48.570 ,0,0,,0,0.,4.8,0.,4.8,,0,0.,4.8,1.,4.8
1979-07-30 01:00:53.370 ,0,0,,0,0.,4.8,0.,4.8,,0,0.,4.8,3.,4.8
1979-07-30 01:00:58.170 ,0,0,,0,1.,4.8,0.,4.8,,0,0.,4.8,1.,4.8
1979-07-30 01:01:02.970 ,0,0,,0,8.,4.8,2.,4.8,,0,0.,4.8,2.,4.8
1979-07-30 01:01:07.770 ,0,0,,0,4.,4.8,0.,4.8,,0,0.,4.8,2.,4.8
1979-07-30 01:01:12.570 ,0,0,,0,1.,4.8,0.,4.8,,0,0.,4.8,1.,4.8
1979-07-30 01:01:17.370 ,0,0,,0,5.,4.8,0.,4.8,,0,0.,4.8,0.,4.8
1979-07-30 01:01:22.170 ,0,0,,0,3.,4.8,0.,4.8,,0,0.,4.8,1.,4.8
1979-07-30 01:01:26.970 ,0,0,,0,0.,4.8,0.,4.8,,0,0.,4.8,1.,4.8
1979-07-30 01:01:31.770 ,0,0,,0,0.,4.8,0.,4.8,,0,0.,4.8,1.,4.8
1979-07-30 01:01:36.570 ,1,0,,0,0.,4.8,0.,4.8,,0,0.,4.8,2.,4.8
1979-07-30 01:01:41.370 ,1,0,,0,0.,4.8,0.,4.8,,0,0.,4.8,1.,4.8
1979-07-30 01:01:46.170 ,1,0,,0,0.,4.8,0.,4.8,,0,0.,4.8,1.,4.8
1979-07-30 01:01:50.970 ,1,0,,0,3.,4.8,0.,4.8,,0,0.,4.8,0.,4.8
1979-07-30 01:01:55.770 ,1,0,,0,3.,4.8,0.,4.8,,0,0.,4.8,1.,4.8
1979-07-30 01:02:00.570 ,1,0,,0,4.,4.8,1.,4.8,,0,0.,4.8,0.,4.8
1979-07-30 01:02:05.370 ,1,0,,0,3.,4.8,0.,4.8,,0,0.,4.8,1.,4.8
1979-07-30 01:02:10.170 ,1,0,,0,6.,4.8,0.,4.8,,0,0.,4.8,0.,4.8
1979-07-30 01:02:14.970 ,1,0,,0,0.,4.8,0.,4.8,,0,0.,4.8,2.,4.8
1979-07-30 01:02:19.770 ,1,0,,0,0.,4.8,0.,4.8,,0,0.,4.8,0.,4.8
1979-07-30 01:02:24.570 ,2,0,,0,0.,4.8,0.,4.8,,0,0.,4.8,0.,4.8
1979-07-30 01:02:29.370 ,2,0,,0,0.,4.8,0.,4.8,,0,0.,4.8,0.,4.8
1979-07-30 01:02:34.170 ,2,0,,0,0.,4.8,0.,4.8,,0,0.,4.8,0.,4.8
1979-07-30 01:02:38.970 ,2,0,,0,9.,4.8,0.,4.8,,0,0.,4.8,1.,4.8
1979-07-30 01:02:43.770 ,2,0,,0,5.,4.8,0.,4.8,,0,0.,4.8,0.,4.8
1979-07-30 01:02:48.570 ,2,0,,0,6.,4.8,1.,4.8,,0,0.,4.8,1.,4.8
1979-07-30 01:02:53.370 ,2,0,,0,5.,4.8,1.,4.8,,0,0.,4.8,2.,4.8
1979-07-30 01:02:58.170 ,2,0,,0,3.,4.8,0.,4.8,,0,0.,4.8,1.,4.8
1979-07-30 01:03:02.970 ,2,0,,0,0.,4.8,0.,4.8,,0,0.,4.8,0.,4.8
1979-07-30 01:03:07.770 ,2,0,,0,1.,4.8,0.,4.8,,0,0.,4.8,0.,4.8
1979-07-30 01:03:12.570 ,3,0,,0,0.,4.8,0.,4.8,,0,0.,4.8,2.,4.8
1979-07-30 01:03:17.370 ,3,0,,0,0.,4.8,0.,4.8,,0,0.,4.8,0.,4.8
1979-07-30 01:03:22.170 ,3,0,,0,1.,4.8,0.,4.8,,0,0.,4.8,0.,4.8
1979-07-30 01:03:26.970 ,3,0,,0,2.,4.8,0.,4.8,,0,0.,4.8,2.,4.8
1979-07-30 01:03:31.770 ,3,0,,0,2.,4.8,0.,4.8,,0,0.,4.8,0.,4.8
1979-07-30 01:03:36.570 ,3,0,,0,0.,4.8,0.,4.8,,0,0.,4.8,2.,4.8
1979-07-30 01:03:41.370 ,3,0,,0,5.,4.8,0.,4.8,,0,0.,4.8,0.,4.8
1979-07-30 01:03:46.170 ,3,0,,0,2.,4.8,0.,4.8,,0,0.,4.8,3.,4.8
1979-07-30 01:03:50.970 ,3,0,,0,0.,4.8,0.,4.8,,0,0.,4.8,1.,4.8
1979-07-30 01:03:55.770 ,3,0,,0,0.,4.8,0.,4.8,,0,0.,4.8,1.,4.8
1979-07-30 01:04:00.570 ,4,0,,0,0.,4.8,0.,4.8,,0,0.,4.8,0.,4.8
1979-07-30 01:04:05.370 ,4,0,,0,0.,4.8,0.,4.8,,0,0.,4.8,1.,4.8
1979-07-30 01:04:10.170 ,4,0,,0,2.,4.8,0.,4.8,,0,0.,4.8,2.,4.8
1979-07-30 01:04:14.970 ,4,0,,0,4.,4.8,0.,4.8,,0,0.,4.8,0.,4.8
1979-07-30 01:04:19.770 ,4,0,,0,6.,4.8,0.,4.8,,0,0.,4.8,0.,4.8
1979-07-30 01:04:24.570 ,4,0,,0,7.,4.8,0.,4.8,,0,0.,4.8,2.,4.8
1979-07-30 01:04:29.370 ,4,0,,0,6.,4.8,0.,4.8,,0,0.,4.8,0.,4.8
1979-07-30 01:04:34.170 ,4,0,,0,8.,4.8,1.,4.8,,0,0.,4.8,0.,4.8
1979-07-30 01:04:38.970 ,4,0,,0,0.,4.8,0.,4.8,,0,0.,4.8,0.,4.8
1979-07-30 01:04:43.770 ,4,0,,0,0.,4.8,0.,4.8,,0,0.,4.8,1.,4.8
1979-07-30 01:04:48.570 ,5,0,,0,0.,4.8,0.,4.8,,0,0.,4.8,0.,4.8
1979-07-30 01:04:53.370 ,5,0,,0,0.,4.8,0.,4.8,,0,0.,4.8,0.,4.8
1979-07-30 01:04:58.170 ,5,0,,0,0.,4.8,0.,4.8,,0,0.,4.8,1.,4.8
1979-07-30 01:05:02.970 ,5,0,,0,8.,4.8,0.,4.8,,0,0.,4.8,0.,4.8
1979-07-30 01:05:07.770 ,5,0,,0,3.,4.8,0.,4.8,,0,1.,4.8,2.,4.8
1979-07-30 01:05:12.570 ,5,0,,0,8.,4.8,0.,4.8,,0,0.,4.8,0.,4.8
1979-07-30 01:05:17.370 ,5,0,,0,5.,4.8,0.,4.8,,0,0.,4.8,2.,4.8
1979-07-30 01:05:22.170 ,5,0,,0,4.,4.8,0.,4.8,,0,0.,4.8,0.,4.8
1979-07-30 01:05:26.970 ,5,0,,0,0.,4.8,0.,4.8,,0,0.,4.8,2.,4.8
1979-07-30 01:05:31.770 ,5,0,,0,0.,4.8,0.,4.8,,0,0.,4.8,0.,4.8
1979-07-30 01:05:36.570 ,6,0,,0,0.,4.8,0.,4.8,,0,0.,4.8,0.,4.8
1979-07-30 01:05:41.370 ,6,0,,0,0.,4.8,0.,4.8,,0,0.,4.8,1.,4.8
1979-07-30 01:05:46.170 ,6,0,,0,0.,4.8,0.,4.8,,0,0.,4.8,1.,4.8
1979-07-30 01:05:50.970 ,6,0,,0,6.,4.8,1.,4.8,,0,0.,4.8,2.,4.8
1979-07-30 01:05:55.770 ,6,0,,0,3.,4.8,0.,4.8,,0,0.,4.8,0.,4.8
1979-07-30 01:06:00.570 ,6,0,,0,4.,4.8,0.,4.8,,0,0.,4.8,0.,4.8
1979-07-30 01:06:05.370 ,6,0,,0,7.,4.8,0.,4.8,,0,0.,4.8,3.,4.8
1979-07-30 01:06:10.170 ,6,0,,0,5.,4.8,0.,4.8,,0,0.,4.8,2.,4.8
1979-07-30 01:06:14.970 ,6,0,,0,0.,4.8,0.,4.8,,0,0.,4.8,1.,4.8
1979-07-30 01:06:19.770 ,6,0,,0,0.,4.8,0.,4.8,,0,0.,4.8,0.,4.8
1979-07-30 01:06:24.570 ,7,0,,0,0.,4.8,0.,4.8,,0,0.,4.8,0.,4.8
1979-07-30 01:06:29.370 ,7,0,,0,0.,4.8,0.,4.8,,0,0.,4.8,3.,4.8
1979-07-30 01:06:34.170 ,7,0,,0,1.,4.8,0.,4.8,,0,0.,4.8,0.,4.8
1979-07-30 01:06:38.970 ,7,0,,0,10.,4.8,0.,4.8,,0,0.,4.8,0.,4.8
1979-07-30 01:06:43.770 ,7,0,,0,6.,4.8,0.,4.8,,0,0.,4.8,0.,4.8
1979-07-30 01:06:48.570 ,7,0,,0,13.,4.8,0.,4.8,,0,0.,4.8,0.,4.8
1979-07-30 01:06:53.370 ,7,0,,0,11.,4.8,0.,4.8,,0,0.,4.8,0.,4.8
1979-07-30 01:06:58.170 ,7,0,,0,14.,4.8,0.,4.8,,0,0.,4.8,0.,4.8
1979-07-30 01:07:02.970 ,7,0,,0,0.,4.8,0.,4.8,,0,0.,4.8,0.,4.8
1979-07-30 01:07:07.770 ,7,0,,0,0.,4.8,0.,4.8,,0,0.,4.8,0.,4.8
1979-07-30 01:07:12.570 ,3,1,,0,0.,4.8,0.,4.8,,0,0.,4.8,1.,4.8
1979-07-30 01:07:17.370 ,3,1,,0,0.,4.8,0.,4.8,,0,0.,4.8,1.,4.8
1979-07-30 01:07:22.170 ,3,1,,0,1.,4.8,0.,4.8,,0,0.,4.8,0.,4.8
1979-07-30 01:07:26.970 ,3,1,,0,3.,4.8,0.,4.8,,0,0.,4.8,1.,4.8
1979-07-30 01:07:31.770 ,3,1,,0,6.,4.8,0.,4.8,,0,0.,4.8,1.,4.8
1979-07-30 01:07:36.570 ,0,1,,0,2.,4.8,0.,4.8,,0,0.,4.8,2.,4.8
1979-07-30 01:07:41.370 ,0,1,,0,3.,4.8,0.,4.8,,0,0.,4.8,0.,4.8
1979-07-30 01:07:46.170 ,0,1,,0,5.,4.8,0.,4.8,,0,0.,4.8,3.,4.8
1979-07-30 01:07:50.970 ,0,1,,0,0.,4.8,0.,4.8,,0,0.,4.8,4.,4.8
1979-07-30 01:07:55.770 ,0,1,,0,0.,4.8,0.,4.8,,0,0.,4.8,2.,4.8
1979-07-30 01:08:00.570 ,4,1,,0,0.,4.8,0.,4.8,,0,0.,4.8,3.,4.8
1979-07-30 01:08:05.370 ,4,1,,0,0.,4.8,0.,4.8,,0,0.,4.8,1.,4.8
1979-07-30 01:08:10.170 ,4,1,,0,3.,4.8,0.,4.8,,0,0.,4.8,2.,4.8
1979-07-30 01:08:14.970 ,4,1,,0,2.,4.8,0.,4.8,,0,0.,4.8,0.,4.8
1979-07-30 01:08:19.770 ,4,1,,0,3.,4.8,0.,4.8,,0,0.,4.8,2.,4.8
1979-07-30 01:08:24.570 ,7,1,,0,2.,4.8,0.,4.8,,0,0.,4.8,0.,4.8
1979-07-30 01:08:29.370 ,7,1,,0,7.,4.8,0.,4.8,,0,0.,4.8,1.,4.8
1979-07-30 01:08:34.170 ,7,1,,0,9.,4.8,0.,4.8,,0,0.,4.8,1.,4.8
1979-07-30 01:08:38.970 ,7,1,,0,0.,4.8,0.,4.8,,0,0.,4.8,0.,4.8
1979-07-30 01:08:43.770 ,7,1,,0,0.,4.8,0.,4.8,,0,0.,4.8,0.,4.8
1979-07-30 01:08:48.570 ,3,1,,0,0.,4.8,0.,4.8,,0,0.,4.8,1.,4.8
1979-07-30 01:08:53.370 ,3,1,,0,0.,4.8,0.,4.8,,0,0.,4.8,0.,4.8
1979-07-30 01:08:58.170 ,3,1,,0,0.,4.8,0.,4.8,,0,0.,4.8,0.,4.8
1979-07-30 01:09:02.970 ,3,1,,0,4.,4.8,0.,4.8,,0,0.,4.8,1.,4.8
1979-07-30 01:09:07.770 ,3,1,,0,4.,4.8,0.,4.8,,0,0.,4.8,0.,4.8
1979-07-30 01:09:12.570 ,0,1,,0,8.,4.8,0.,4.8,,0,0.,4.8,1.,4.8
1979-07-30 01:09:17.370 ,0,1,,0,8.,4.8,0.,4.8,,0,0.,4.8,2.,4.8
1979-07-30 01:09:22.170 ,0,1,,0,2.,4.8,0.,4.8,,0,0.,4.8,0.,4.8
1979-07-30 01:09:26.970 ,0,1,,0,1.,4.8,0.,4.8,,0,0.,4.8,2.,4.8
1979-07-30 01:09:31.770 ,0,1,,0,0.,4.8,0.,4.8,,0,0.,4.8,1.,4.8
1979-07-30 01:09:36.570 ,4,1,,0,0.,4.8,0.,4.8,,0,0.,4.8,1.,4.8
1979-07-30 01:09:41.370 ,4,1,,0,0.,4.8,0.,4.8,,0,0.,4.8,4.,4.8
1979-07-30 01:09:46.170 ,4,1,,0,0.,4.8,0.,4.8,,0,0.,4.8,0.,4.8
1979-07-30 01:09:50.970 ,4,1,,0,2.,4.8,0.,4.8,,0,0.,4.8,0.,4.8
1979-07-30 01:09:55.770 ,4,1,,0,4.,4.8,0.,4.8,,0,0.,4.8,1.,4.8
1979-07-30 01:10:00.570 ,7,1,,0,7.,4.8,0.,4.8,,0,0.,4.8,1.,4.8
1979-07-30 01:10:05.370 ,7,1,,0,4.,4.8,0.,4.8,,0,0.,4.8,0.,4.8
1979-07-30 01:10:10.170 ,7,1,,0,7.,4.8,0.,4.8,,0,0.,4.8,0.,4.8
1979-07-30 01:10:14.970 ,7,1,,0,0.,4.8,0.,4.8,,0,0.,4.8,0.,4.8
1979-07-30 01:10:19.770 ,7,1,,0,0.,4.8,0.,4.8,,0,0.,4.8,0.,4.8
1979-07-30 01:10:24.570 ,3,1,,0,0.,4.8,0.,4.8,,0,0.,4.8,0.,4.8
1979-07-30 01:10:29.370 ,3,1,,0,0.,4.8,0.,4.8,,0,0.,4.8,0.,4.8
1979-07-30 01:10:34.170 ,3,1,,0,0.,4.8,0.,4.8,,0,0.,4.8,1.,4.8
1979-07-30 01:10:38.970 ,3,1,,0,3.,4.8,0.,4.8,,0,0.,4.8,0.,4.8
1979-07-30 01:10:43.770 ,3,1,,0,1.,4.8,0.,4.8,,0,0.,4.8,1.,4.8
1979-07-30 01:10:48.570 ,0,0,,0,3.,4.8,0.,4.8,,0,0.,4.8,0.,4.8
1979-07-30 01:10:53.370 ,0,0,,0,4.,4.8,0.,4.8,,0,0.,4.8,1.,4.8
1979-07-30 01:10:58.170 ,0,0,,0,2.,4.8,0.,4.8,,0,0.,4.8,3.,4.8
1979-07-30 01:11:02.970 ,0,0,,0,0.,4.8,0.,4.8,,0,0.,4.8,1.,4.8
1979-07-30 01:11:07.770 ,0,0,,0,,0,,0,,0,,0,,0
1979-07-30 01:11:14.970 ,0,0,,0,0.,4.8,0.,4.8,,0,0.,4.8,0.,4.8
1979-07-30 01:11:19.770 ,0,0,,0,0.,4.8,0.,4.8,,0,0.,4.8,2.,4.8
1979-07-30 01:11:24.570 ,0,0,,0,0.,4.8,0.,4.8,,0,0.,4.8,3.,4.8
1979-07-30 01:11:29.370 ,0,0,,0,2.,4.8,0.,4.8,,0,0.,4.8,0.,4.8
1979-07-30 01:11:34.170 ,0,0,,0,3.,4.8,0.,4.8,,0,0.,4.8,2.,4.8
1979-07-30 01:11:36.570 ,7,1,,0,6.,4.8,0.,4.8,,0,0.,4.8,0.,4.8
1979-07-30 01:11:41.370 ,7,1,,0,5.,4.8,1.,4.8,,0,0.,4.8,0.,4.8
1979-07-30 01:11:46.170 ,7,1,,0,7.,4.8,0.,4.8,,0,0.,4.8,0.,4.8
1979-07-30 01:11:50.970 ,7,1,,0,0.,4.8,0.,4.8,,0,0.,4.8,0.,4.8
1979-07-30 01:11:55.770 ,7,1,,0,0.,4.8,0.,4.8,,0,0.,4.8,0.,4.8
1979-07-30 01:12:00.570 ,3,1,,0,,0,,0,,0,,0,,0
1979-07-30 01:12:05.370 ,3,1,,0,,0,,0,,0,,0,,0
1979-07-30 01:12:10.170 ,3,1,,0,2.,4.8,0.,4.8,,0,0.,4.8,1.,4.8
1979-07-30 01:12:14.970 ,3,1,,0,8.,4.8,0.,4.8,,0,0.,4.8,1.,4.8
1979-07-30 01:12:19.770 ,3,1,,0,1.,4.8,0.,4.8,,0,0.,4.8,0.,4.8
1979-07-30 01:12:24.570 ,0,1,,0,2.,4.8,0.,4.8,,0,0.,4.8,0.,4.8
1979-07-30 01:12:29.370 ,0,1,,0,1.,4.8,0.,4.8,,0,0.,4.8,0.,4.8
1979-07-30 01:12:34.170 ,0,1,,0,5.,4.8,0.,4.8,,0,0.,4.8,1.,4.8
1979-07-30 01:12:38.970 ,0,1,,0,0.,4.8,0.,4.8,,0,0.,4.8,0.,4.8
1979-07-30 01:12:43.770 ,0,1,,0,0.,4.8,0.,4.8,,0,0.,4.8,2.,4.8
1979-07-30 01:12:48.570 ,4,1,,0,0.,4.8,0.,4.8,,0,0.,4.8,2.,4.8
1979-07-30 01:12:53.370 ,4,1,,0,0.,4.8,0.,4.8,,0,0.,4.8,0.,4.8
1979-07-30 01:12:58.170 ,4,1,,0,2.,4.8,0.,4.8,,0,0.,4.8,0.,4.8
1979-07-30 01:13:02.970 ,4,1,,0,4.,4.8,0.,4.8,,0,0.,4.8,0.,4.8
1979-07-30 01:13:07.770 ,4,1,,0,3.,4.8,0.,4.8,,0,0.,4.8,0.,4.8
1979-07-30 01:13:12.570 ,7,1,,0,1.,4.8,0.,4.8,,0,0.,4.8,0.,4.8
1979-07-30 01:13:17.370 ,7,1,,0,4.,4.8,0.,4.8,,0,0.,4.8,2.,4.8
1979-07-30 01:13:22.170 ,7,1,,0,3.,4.8,0.,4.8,,0,0.,4.8,2.,4.8
1979-07-30 01:13:26.970 ,7,1,,0,0.,4.8,0.,4.8,,0,0.,4.8,0.,4.8
1979-07-30 01:13:31.770 ,7,1,,0,0.,4.8,0.,4.8,,0,0.,4.8,0.,4.8
1979-07-30 01:13:36.570 ,3,1,,0,0.,4.8,0.,4.8,,0,0.,4.8,0.,4.8
1979-07-30 01:13:41.370 ,3,1,,0,0.,4.8,0.,4.8,,0,0.,4.8,0.,4.8
1979-07-30 01:13:46.170 ,3,1,,0,1.,4.8,0.,4.8,,0,0.,4.8,1.,4.8
1979-07-30 01:13:50.970 ,3,1,,0,6.,4.8,0.,4.8,,0,0.,4.8,0.,4.8
1979-07-30 01:13:55.770 ,3,1,,0,3.,4.8,1.,4.8,,0,0.,4.8,1.,4.8
1979-07-30 01:14:00.570 ,0,1,,0,4.,4.8,0.,4.8,,0,0.,4.8,0.,4.8
1979-07-30 01:14:05.370 ,0,1,,0,6.,4.8,0.,4.8,,0,0.,4.8,0.,4.8
1979-07-30 01:14:10.170 ,0,1,,0,2.,4.8,0.,4.8,,0,0.,4.8,0.,4.8
1979-07-30 01:14:14.970 ,0,1,,0,0.,4.8,0.,4.8,,0,0.,4.8,1.,4.8
1979-07-30 01:14:19.770 ,0,1,,0,0.,4.8,0.,4.8,,0,0.,4.8,1.,4.8
1979-07-30 01:14:24.570 ,4,1,,0,0.,4.8,0.,4.8,,0,0.,4.8,5.,4.8
1979-07-30 01:14:29.370 ,4,1,,0,0.,4.8,0.,4.8,,0,0.,4.8,0.,4.8
1979-07-30 01:14:34.170 ,4,1,,0,1.,4.8,0.,4.8,,0,0.,4.8,0.,4.8
1979-07-30 01:14:38.970 ,4,1,,0,3.,4.8,0.,4.8,,0,0.,4.8,1.,4.8
1979-07-30 01:14:43.770 ,4,1,,0,8.,4.8,0.,4.8,,0,0.,4.8,0.,4.8
1979-07-30 01:14:48.570 ,7,1,,0,2.,4.8,0.,4.8,,0,0.,4.8,0.,4.8
1979-07-30 01:14:53.370 ,7,1,,0,2.,4.8,0.,4.8,,0,0.,4.8,2.,4.8
1979-07-30 01:14:58.170 ,7,1,,0,8.,4.8,1.,4.8,,0,0.,4.8,0.,4.8
1979-07-30 01:15:02.970 ,7,1,,0,0.,4.8,0.,4.8,,0,0.,4.8,0.,4.8
1979-07-30 01:15:07.770 ,7,1,,0,0.,4.8,0.,4.8,,0,0.,4.8,0.,4.8
1979-07-30 01:15:12.570 ,3,1,,0,0.,4.8,0.,4.8,,0,0.,4.8,1.,4.8
1979-07-30 01:15:17.370 ,3,1,,0,0.,4.8,0.,4.8,,0,0.,4.8,0.,4.8
1979-07-30 01:15:22.170 ,3,1,,0,2.,4.8,0.,4.8,,0,0.,4.8,1.,4.8
1979-07-30 01:15:26.970 ,3,1,,0,7.,4.8,0.,4.8,,0,0.,4.8,0.,4.8
1979-07-30 01:15:31.770 ,3,1,,0,4.,4.8,0.,4.8,,0,0.,4.8,0.,4.8
1979-07-30 01:15:36.570 ,0,1,,0,4.,4.8,1.,4.8,,0,0.,4.8,1.,4.8
1979-07-30 01:15:41.370 ,0,1,,0,4.,4.8,0.,4.8,,0,0.,4.8,0.,4.8
1979-07-30 01:15:46.170 ,0,1,,0,2.,4.8,0.,4.8,,0,0.,4.8,3.,4.8
1979-07-30 01:15:50.970 ,0,1,,0,0.,4.8,0.,4.8,,0,0.,4.8,2.,4.8
1979-07-30 01:15:55.770 ,0,1,,0,0.,4.8,0.,4.8,,0,0.,4.8,3.,4.8
1979-07-30 01:16:00.570 ,4,1,,0,0.,4.8,0.,4.8,,0,0.,4.8,0.,4.8
1979-07-30 01:16:05.370 ,4,1,,0,0.,4.8,0.,4.8,,0,0.,4.8,1.,4.8
1979-07-30 01:16:10.170 ,4,1,,0,2.,4.8,0.,4.8,,0,0.,4.8,0.,4.8
1979-07-30 01:16:14.970 ,4,1,,0,5.,4.8,0.,4.8,,0,0.,4.8,0.,4.8
1979-07-30 01:16:19.770 ,4,1,,0,2.,4.8,0.,4.8,,0,0.,4.8,0.,4.8
1979-07-30 01:16:24.570 ,7,1,,0,3.,4.8,0.,4.8,,0,0.,4.8,1.,4.8
1979-07-30 01:16:29.370 ,7,1,,0,7.,4.8,0.,4.8,,0,0.,4.8,1.,4.8
1979-07-30 01:16:34.170 ,7,1,,0,5.,4.8,1.,4.8,,0,0.,4.8,3.,4.8
1979-07-30 01:16:38.970 ,7,1,,0,1.,4.8,0.,4.8,,0,0.,4.8,0.,4.8
1979-07-30 01:16:43.770 ,7,1,,0,0.,4.8,0.,4.8,,0,0.,4.8,0.,4.8
1979-07-30 01:16:48.570 ,3,1,,0,0.,4.8,0.,4.8,,0,0.,4.8,0.,4.8
1979-07-30 01:16:53.370 ,3,1,,0,0.,4.8,0.,4.8,,0,0.,4.8,0.,4.8
1979-07-30 01:16:58.170 ,3,1,,0,0.,4.8,0.,4.8,,0,0.,4.8,2.,4.8
1979-07-30 01:17:02.970 ,3,1,,0,4.,4.8,1.,4.8,,0,0.,4.8,0.,4.8
1979-07-30 01:17:07.770 ,3,1,,0,1.,4.8,0.,4.8,,0,0.,4.8,0.,4.8
1979-07-30 01:17:12.570 ,0,1,,0,4.,4.8,0.,4.8,,0,0.,4.8,0.,4.8
1979-07-30 01:17:17.370 ,0,1,,0,8.,4.8,0.,4.8,,0,0.,4.8,0.,4.8
1979-07-30 01:17:22.170 ,0,1,,0,6.,4.8,0.,4.8,,0,0.,4.8,2.,4.8
1979-07-30 01:17:26.970 ,0,1,,0,0.,4.8,0.,4.8,,0,0.,4.8,0.,4.8
1979-07-30 01:17:31.770 ,0,1,,0,0.,4.8,0.,4.8,,0,0.,4.8,1.,4.8
1979-07-30 01:17:36.570 ,0,0,,0,0.,4.8,0.,4.8,,0,0.,4.8,1.,4.8
1979-07-30 01:17:41.370 ,0,0,,0,0.,4.8,0.,4.8,,0,0.,4.8,1.,4.8
1979-07-30 01:17:46.170 ,0,0,,0,2.,4.8,0.,4.8,,0,0.,4.8,1.,4.8
1979-07-30 01:17:50.970 ,0,0,,0,6.,4.8,0.,4.8,,0,0.,4.8,1.,4.8
1979-07-30 01:17:55.770 ,0,0,,0,7.,4.8,1.,4.8,,0,0.,4.8,1.,4.8
1979-07-30 01:18:00.570 ,0,0,,0,6.,4.8,0.,4.8,,0,0.,4.8,1.,4.8
1979-07-30 01:18:05.370 ,0,0,,0,6.,4.8,0.,4.8,,0,0.,4.8,1.,4.8
1979-07-30 01:18:10.170 ,0,0,,0,5.,4.8,0.,4.8,,0,0.,4.8,1.,4.8
1979-07-30 01:18:14.970 ,0,0,,0,0.,4.8,0.,4.8,,0,0.,4.8,0.,4.8
1979-07-30 01:18:19.770 ,0,0,,0,0.,4.8,0.,4.8,,0,0.,4.8,0.,4.8
1979-07-30 01:18:24.570 ,5,0,,0,0.,4.8,0.,4.8,,0,0.,4.8,2.,4.8
1979-07-30 01:18:29.370 ,5,0,,0,0.,4.8,0.,4.8,,0,0.,4.8,0.,4.8
1979-07-30 01:18:34.170 ,5,0,,0,2.,4.8,0.,4.8,,0,0.,4.8,0.,4.8
1979-07-30 01:18:38.970 ,5,0,,0,4.,4.8,0.,4.8,,0,0.,4.8,0.,4.8
1979-07-30 01:18:43.770 ,5,0,,0,5.,4.8,0.,4.8,,0,0.,4.8,0.,4.8
1979-07-30 01:18:48.570 ,5,0,,0,2.,4.8,0.,4.8,,0,0.,4.8,1.,4.8
1979-07-30 01:18:53.370 ,5,0,,0,2.,4.8,0.,4.8,,0,0.,4.8,1.,4.8